Home   Weather   San Marino   Past weeks
Flag for San Marino

Past Weather in San Marino, San Marino — Yesterday and Last 2 Weeks

Now
37 °F

Fog.


Feels Like: 30 °F
Forecast: 28 / 25 °F
Wind: 10 mph from Northwest

Location: Rimini Airport

Current Time: Jan 24, 2019 at 3:22:47 am

Latest Report: Jan 24, 2019 at 2:20 am


Visibility: 3 mi

Pressure: 29.36 "Hg (27.04 "Hg at 666m altitude)

Humidity: 93%

Dew Point: 36 °F

Location of San MarinoLocation

Past Weather in San Marino — Graph

°F

San Marino Temperature Yesterday

Maximum temperature yesterday: 39 °F (at 11:20 am)
Minimum temperature yesterday: 34 °F (at 7:50 am)
Average temperature yesterday: 37 °F

High & Low Weather Summary for the Past Weeks

 TemperatureHumidityPressure
High61 °F (Jan 16, 12:50 pm)100% (Jan 9, 8:20 pm)30.15 "Hg (Jan 9, 8:20 pm)
Low28 °F (Jan 12, 7:50 am)25% (Jan 16, 1:50 pm)29.36 "Hg (Jan 23, 8:50 pm)
Average40 °F74%29.89 "Hg
* Reported Jan 9 1:20 am — Jan 24 1:50 am, San Marino. Weather by CustomWeather, © 2019

Note: Actual official high and low records may vary slightly from our data, if they occured in-between our weather recording intervals... More about our weather records

Advertising

San Marino Weather History for the Previous 24 Hours

Scroll right to see more
 ConditionsComfort  
Time TempWeatherWind HumidityBarometerVisibility
1:50 am
Thu, Jan 24
37 °FFog.9 mph93%29.36 "Hg2 mi
1:20 am37 °FFog.8 mph100%29.36 "Hg2 mi
12:50 am37 °FFog.8 mph100%29.36 "Hg1 mi
12:20 am37 °FFog.7 mph100%29.36 "Hg1 mi
11:50 pm
Wed, Jan 23
39 °FLight rain. Fog.6 mph93%29.36 "Hg2 mi
11:20 pm37 °FRain. Overcast.5 mph100%29.36 "Hg1 mi
10:50 pm37 °FLight rain. Fog.2 mph100%29.36 "Hg3 mi
10:20 pm37 °FLight rain. Fog.2 mph100%29.36 "Hg3 mi
9:20 pm37 °FLight rain. Passing clouds.3 mph93%29.36 "Hg4 mi
8:50 pm37 °FLight rain. Passing clouds.2 mph93%29.36 "Hg4 mi
8:20 pm37 °FLight rain. Passing clouds.2 mph93%29.39 "Hg5 mi
7:50 pm39 °FLight rain. Passing clouds.1 mph87%29.39 "HgN/A
6:50 pm39 °FLight rain. Partly cloudy.5 mph81%29.39 "HgN/A
6:20 pm39 °FLight rain. Passing clouds.5 mph81%29.39 "HgN/A
5:50 pm39 °FPassing clouds.5 mph81%29.39 "HgN/A
5:20 pm39 °FPassing clouds.5 mph81%29.39 "HgN/A
4:50 pm39 °FPartly sunny.3 mph81%29.39 "HgN/A
4:20 pm39 °FPartly sunny.3 mph75%29.39 "HgN/A
3:50 pm39 °FScattered clouds.5 mph75%29.42 "HgN/A
3:20 pm39 °FBroken clouds.5 mph75%29.42 "HgN/A
2:50 pm39 °FScattered clouds.3 mph75%29.42 "HgN/A
2:20 pm39 °FScattered clouds.5 mph75%29.42 "HgN/A
1:50 pm39 °FScattered clouds.5 mph81%29.42 "HgN/A
1:20 pm39 °FScattered clouds.6 mph81%29.45 "Hg5 mi
12:50 pm39 °FScattered clouds.5 mph81%29.45 "Hg5 mi
12:20 pm39 °FScattered clouds.5 mph81%29.45 "Hg5 mi
11:50 am39 °FScattered clouds.3 mph81%29.47 "Hg5 mi
11:20 am39 °FScattered clouds.3 mph81%29.47 "Hg5 mi
10:50 am37 °FScattered clouds.3 mph87%29.50 "Hg4 mi
10:20 am37 °FScattered clouds.6 mph87%29.50 "Hg4 mi
9:50 am36 °FLight rain. Broken clouds.8 mph93%29.50 "Hg4 mi
9:20 am36 °FLight rain. Mostly cloudy.7 mph93%29.50 "Hg4 mi
8:50 am36 °FLight rain. Fog.9 mph87%29.50 "Hg3 mi
8:20 am36 °FLight rain. Mostly cloudy.10 mph87%29.50 "Hg4 mi
7:50 am34 °FLight rain. Fog.9 mph93%29.50 "Hg3 mi
7:20 am36 °FLight rain. Fog.12 mph87%29.50 "Hg3 mi
6:50 am36 °FOvercast.12 mph87%29.50 "HgN/A
6:20 am36 °FOvercast.9 mph87%29.50 "HgN/A
5:50 am36 °FPassing clouds.10 mph87%29.50 "Hg6 mi
5:20 am36 °FPassing clouds.10 mph87%29.50 "Hg4 mi
4:50 am36 °FLight rain. Passing clouds.9 mph87%29.50 "Hg4 mi
4:20 am36 °FPassing clouds.8 mph87%29.53 "Hg4 mi
3:50 am36 °FOvercast.9 mph87%29.53 "Hg5 mi
3:20 am36 °FPassing clouds.8 mph87%29.53 "Hg4 mi
Weather by CustomWeather, © 2019

See weather overview